Weather History for KAEG - March, 2013

Change the Weather History Date:

Tuesday, March 19, 2013

  Actual Average Record
Temperature  
Mean Temperature 44 °F -  
Max Temperature 57 °F - - ()
Min Temperature 32 °F - - ()
Degree Days  
Heating Degree Days 20    
Moisture  
Dew Point 3 °F    
Average Humidity 21    
Maximum Humidity 33    
Minimum Humidity 13    
Precipitation  
Precipitation 0.00 in - - ()
Sea Level Pressure  
Sea Level Pressure 30.09 in    
Wind  
Wind Speed 5 mph (NW)    
Max Wind Speed 20 mph    
Max Gust Speed 30 mph    
Visibility 10 miles    
Events      
T = Trace of Precipitation, MM = Missing Value Source: NWS Daily Summary

Daily Weather History Graph

Daily Weather History Graph

Search for Another Location

Airport or City:

Trip Planner

Search our weather history database for the weather conditions in past years. The results will help you decide how hot, cold, wet, or windy it might be!

Date:

Astronomy

Mar. 19, 2013 Rise Set
Actual Time 7:11 AM MDT 7:18 PM MDT
Civil Twilight 6:46 AM MDT 7:43 PM MDT
Nautical Twilight 6:17 AM MDT 8:13 PM MDT
Astronomical Twilight 5:47 AM MDT 8:43 PM MDT
Moon 12:16 PM MDT (3/19) 1:55 AM MDT (3/19)
Length of Visible Light 12h 57m
Length of Day
12h 06m
Waxing Crescent, 50% of the Moon is Illuminated
Mar 19
Waxing Crescent
Mar 27
Full
Apr 2
Last Quarter
Apr 10
New
Apr 18
First Quarter

Hourly Weather History & Observations

Time (MDT) Temp. Windchill Dew Point Humidity Pressure Visibility Wind Dir Wind Speed Gust Speed Precip Events Conditions
12:15 AM 39.2 °F 34.2 °F -2.2 °F 17% 30.05 in 10.0 mi NNE 6.9 mph - N/A   Clear
12:35 AM 39.2 °F 37.0 °F -2.2 °F 17% 30.05 in 10.0 mi West 3.5 mph - N/A   Clear
12:55 AM 41.0 °F 37.1 °F -2.2 °F 16% 30.06 in 10.0 mi NW 5.8 mph - N/A   Clear
1:15 AM 37.4 °F 32.8 °F -2.2 °F 19% 30.06 in 10.0 mi NW 5.8 mph - N/A   Clear
1:35 AM 39.2 °F 34.2 °F -2.2 °F 17% 30.07 in 10.0 mi WNW 6.9 mph - N/A   Clear
1:55 AM 35.6 °F 29.9 °F -2.2 °F 20% 30.06 in 10.0 mi West 6.9 mph - N/A   Clear
2:15 AM 37.4 °F 34.9 °F -2.2 °F 19% 30.06 in 10.0 mi NW 3.5 mph - N/A   Clear
2:35 AM 37.4 °F - -2.2 °F 19% 30.05 in 10.0 mi Calm Calm - N/A   Clear
2:55 AM 32.0 °F - -4.0 °F 21% 30.05 in 10.0 mi Calm Calm - N/A   Clear
3:15 AM 32.0 °F - -4.0 °F 21% 30.04 in 10.0 mi Calm Calm - N/A   Clear
3:35 AM 32.0 °F - -4.0 °F 21% 30.04 in 10.0 mi Calm Calm - N/A   Clear
4:15 AM 33.8 °F - -2.2 °F 22% 30.03 in 10.0 mi Calm Calm - N/A   Clear
4:35 AM 35.6 °F 31.7 °F -2.2 °F 20% 30.03 in 10.0 mi WNW 4.6 mph - N/A   Clear
4:55 AM 35.6 °F 32.8 °F -2.2 °F 20% 30.02 in 10.0 mi WNW 3.5 mph - N/A   Clear
5:15 AM 35.6 °F - -2.2 °F 20% 30.02 in 10.0 mi Calm Calm - N/A   Clear
5:35 AM 35.6 °F 32.8 °F -2.2 °F 20% 30.02 in 10.0 mi SSE 3.5 mph - N/A   Clear
6:50 AM 35.6 °F 31.7 °F -2.2 °F 20% 30.03 in 10.0 mi South 4.6 mph - N/A   Clear
7:50 AM 37.4 °F - -0.4 °F 20% 30.06 in 10.0 mi Calm Calm - N/A   Mostly Cloudy
8:50 AM 41.0 °F - 1.4 °F 19% 30.08 in 10.0 mi Calm Calm - N/A   Overcast
9:50 AM 44.6 °F - 1.4 °F 17% 30.09 in 10.0 mi Calm Calm - N/A   Overcast
10:50 AM 48.2 °F - 5.0 °F 17% 30.09 in 10.0 mi Calm Calm - N/A   Overcast
11:50 AM 50.0 °F - 6.8 °F 17% 30.10 in 10.0 mi Calm Calm - N/A   Overcast
12:50 PM 51.8 °F - 6.8 °F 16% 30.09 in 10.0 mi Calm Calm - N/A   Overcast
1:50 PM 55.4 °F - 8.6 °F 15% 30.08 in 10.0 mi West 9.2 mph - N/A   Overcast
2:50 PM 57.2 °F - 6.8 °F 13% 30.06 in 10.0 mi NW 13.8 mph 29.9 mph N/A   Scattered Clouds
3:50 PM 57.2 °F - 8.6 °F 14% 30.07 in 10.0 mi NW 15.0 mph 24.2 mph N/A   Mostly Cloudy
4:50 PM 57.2 °F - 8.6 °F 14% 30.08 in 10.0 mi NW 19.6 mph - N/A   Mostly Cloudy
5:48 PM 57.2 °F - 8.6 °F 14% 30.10 in 10.0 mi NW 16.1 mph - N/A   Mostly Cloudy
6:50 PM 55.4 °F - 10.4 °F 17% 30.12 in 10.0 mi NW 13.8 mph - N/A   Scattered Clouds
7:50 PM 48.2 °F - 10.4 °F 22% 30.15 in 10.0 mi NW 8.1 mph - N/A   Partly Cloudy
8:50 PM 42.8 °F 38.0 °F 8.6 °F 25% 30.17 in 10.0 mi NNW 8.1 mph - N/A   Clear
9:50 PM 39.2 °F 33.6 °F 8.6 °F 28% 30.19 in 10.0 mi NNW 8.1 mph - N/A   Clear
10:15 PM 37.4 °F 31.4 °F 8.6 °F 30% 30.21 in 10.0 mi North 8.1 mph - N/A   Clear
10:35 PM 39.2 °F 32.5 °F 8.6 °F 28% 30.21 in 10.0 mi NNW 10.4 mph - N/A   Clear
10:55 PM 39.2 °F 33.0 °F 10.4 °F 31% 30.22 in 10.0 mi NNW 9.2 mph - N/A   Clear
11:15 PM 37.4 °F 30.8 °F 10.4 °F 33% 30.22 in 10.0 mi NNW 9.2 mph - N/A   Clear
11:35 PM 37.4 °F 30.3 °F 10.4 °F 33% 30.23 in 10.0 mi NNW 10.4 mph - N/A   Clear
11:55 PM 39.2 °F 32.5 °F 10.4 °F 31% 30.23 in 10.0 mi NNW 10.4 mph - N/A   Clear